Regional Weather Roundup
Issued by NWS

Home | Current Version | Previous Version | Graphics & Text | Print | Product List | Glossary On
Versions: 1 2 3 4 5 6 7 8 9 10 11 12 13 14 15 16 17 18 19 20 21 22 23 24 25 26 27 28 29 30 31 32 33 34 35 36 37 38 39 40 41 42 43 44 45 46 47 48 49 50
411
ASUS43 KBIS 260610
RWRND

NORTH DAKOTA REGIONAL WEATHER ROUNDUP
NATIONAL WEATHER SERVICE BISMARCK ND
1200 AM CST SUN FEB 26 2017

NOTE: "FAIR" INDICATES FEW OR NO CLOUDS BELOW 12,000 FEET WITH NO
SIGNIFICANT WEATHER AND/OR OBSTRUCTIONS TO VISIBILITY.


NDZ001>003-009>011-017-260700-
NORTHWEST NORTH DAKOTA

CITY           SKY/WX    TMP DP  RH WIND       PRES   REMARKS
WILLISTON      FAIR       3   0  87 CALM      29.71S
6HR MIN TEMP:  -1; 6HR MAX TEMP:  19; 6HR PCP: TRACE;

MINOT          FAIR       9   6  88 W7        29.70S WCI  -2
MINOT AFB      CLEAR      0  -4  84 NW9       29.70R WCI -16
$$

NDZ018>021-031>035-040>046-260700-
SOUTHWEST NORTH DAKOTA

CITY           SKY/WX    TMP DP  RH WIND       PRES   REMARKS
BISMARCK       CLOUDY    25  20  81 NW17      29.68R WCI  12
6HR MIN TEMP:  18; 6HR MAX TEMP:  28; 6HR PCP: TRACE;

DICKINSON      CLOUDY    18  15  88 N6        29.64R WCI  10
GARRISON         N/A     13   8  81 N8        29.68S WCI   2
6HR MIN TEMP:  12; 6HR MAX TEMP:  24; 6HR PCP:  0.08;

HETTINGER ARPT CLEAR     14  10  84 NW5       29.67S WCI   6
$$

NDZ004>008-012>016-024-026-027-054-260700-
NORTHEAST NORTH DAKOTA

CITY           SKY/WX    TMP DP  RH WIND       PRES   REMARKS
GRAND FORKS    LGT SNOW  17   9  70 N9        29.72S WCI   6
GRND FRKS AFB  LGT SNOW  16  12  86 N9        29.72S FOG     WCI   4
DEVILS LAKE    LGT SNOW  13  10  88 N9        29.70S FOG     WCI   1
$$

NDZ022-023-025-028>030-036>039-047>053-260700-
SOUTHEAST NORTH DAKOTA

CITY           SKY/WX    TMP DP  RH WIND       PRES   REMARKS
FARGO          CLEAR     22  18  85 W5        29.70F WCI  16
6HR MIN TEMP:  22; 6HR MAX TEMP:  30;

JAMESTOWN      CLOUDY    22  18  85 S10       29.62F WCI  11
$$





USA.gov is the U.S. government's official web portal to all federal, state and local government web resources and services.